Tracking 29777 objects as of 5-Oct-2024
HD Live streaming from Space Station
objects crossing your sky now

THORAD AGENA D DEB

Track THORAD AGENA D DEB now!
10-day predictions


NORAD ID: 42494
Int'l Code: 1970-025QY
Perigee: 971.7 km
Apogee: 1,117.3 km
Inclination: 99.7 °
Period: 105.9 minutes
Semi major axis: 7415 km
RCS: Unknown
Launch date: April 8, 1970
Source: United States (US)
Launch site: AIR FORCE WESTERN TEST RANGE (AFWTR)

Note: This is SATELLITE DEBRIS
Your satellite tracking list
Your tracking list is empty




NASA's NSSDC Master Catalog

Two Line Element Set (TLE):
1 42494U 70025QY  24277.02466341  .00001215  00000-0  16498-2 0  9994
2 42494  99.7459 351.1659 0098174 295.9494  63.1556 13.59533906526877
Source of the keplerian elements: AFSPC